CAPE
0 0 0 0 0 0 0 0 0 0 0 0 0 0 38 69 342 425 784 890 996 1257 1125 1324 1620 1322 1156 2161 2544 2545 2566 2478 2207 1987 1484 1122 913 727 596 836 474 377 302 515 487 520 729 793 548 303 361 498 562 577 594 703 830 919 1073 1146 962 860 1027 992 968 1123 1253 1371 1433 1398 1454 1301 1376 1441 1428 1125 914 997 1349 1892 2545 2501 2018 1985 1732 1699
0 0 0 0 0 0 0 0 0 0 0 0 0 0 0 0 279 350 504 874 930 734 472 705 1148 1248 1142 2233 2456 2606 2577 2457 2036 1819 1532 1138 900 727 641 578 536 423 628 626 552 551 409 500 671 692 858 566 585 590 739 848 890 942 1090 1091 1030 1124 1159 1037 1054 1198 1238 1306 1339 1414 1390 1404 1513 1506 1452 1148 898 1014 1545 2038 2554 2493 2020 1837 1692 2084
0 0 0 0 0 0 0 0 0 0 0 0 0 0 0 0 132 627 716 1000 1056 542 272 464 673 1035 1609 2215 1667 2056 2170 1879 1566 1334 1200 1121 1033 895 720 627 540 748 721 667 510 420 584 391 473 748 794 398 385 808 912 917 935 969 1030 1056 1144 1212 1178 1108 1137 1202 1199 1274 1283 1270 1289 1410 1423 1418 1357 1132 895 1068 1369 1950 2347 2301 2109 2094 1966 2083
0 0 0 0 0 0 0 0 0 0 0 0 0 0 0 0 42 10 564 911 1072 680 534 932 1044 1319 1552 1353 1476 1605 1776 1760 1723 1667 1548 1519 1326 1181 1025 755 868 781 750 655 513 451 432 323 508 335 604 466 501 796 899 867 896 896 950 1046 1146 1209 1182 1144 1204 1232 1207 1230 1220 1099 1193 1294 1250 1281 1524 1282 1138 1158 1136 1442 1988 1968 2098 2388 2399 2338
0 0 0 0 0 0 0 0 0 0 0 0 0 0 0 0 0 0 592 815 998 419 948 1254 1292 1380 1480 1502 1563 1784 1895 1755 1690 1607 1424 1297 1192 1196 1008 974 979 736 564 385 820 428 481 779 450 393 555 504 599 627 810 813 818 882 926 1022 1087 1150 1170 1131 1318 1170 1160 1268 1092 971 1064 1159 1081 1324 1618 1235 992 1006 1149 1002 1534 1742 1967 2398 2472 2406
0 0 0 0 0 0 0 0 0 0 0 0 0 0 0 0 0 89 806 714 743 721 1385 1232 1010 1482 1570 1397 1511 1535 1509 1653 1524 1271 1198 1220 1187 1027 979 995 955 649 452 576 666 783 845 668 595 672 884 558 611 606 593 774 817 762 812 856 896 940 1002 1022 1140 1058 1297 1208 1077 982 982 905 888 1052 1526 1334 1040 916 887 732 1134 1466 1763 2291 2481 2326
0 0 0 0 0 0 0 0 0 0 0 0 0 0 0 0 0 595 805 806 480 332 1137 870 413 764 1336 1412 1350 1423 1226 1250 1133 1110 1048 964 922 932 1044 920 951 713 454 642 801 806 642 710 662 796 841 634 661 650 673 648 619 762 682 705 758 824 930 1091 1080 1181 1461 1082 1018 932 857 829 805 957 1302 1258 1060 857 673 643 1044 1275 1426 1985 2414 2683
0 0 0 0 0 0 0 0 0 0 0 0 0 0 0 30 659 893 799 608 707 511 400 666 370 624 1070 970 1081 1324 1134 1191 1171 1027 914 791 738 748 807 794 676 606 542 420 670 923 877 764 1090 875 573 793 809 795 763 741 880 840 765 745 799 937 1195 1189 1161 1266 1239 1059 996 870 754 819 822 908 1215 1134 981 726 586 628 1016 1112 1123 1837 2289 2229
0 0 0 0 0 0 0 0 0 0 0 0 0 0 0 0 116 884 639 526 518 500 368 333 464 486 782 914 1045 951 1018 1093 1087 997 847 633 654 677 621 613 575 412 384 597 710 820 905 990 964 849 778 879 865 816 804 778 712 767 836 940 965 1042 1172 1184 1336 1311 1202 1120 1039 820 683 822 843 942 1260 1290 915 812 1035 632 815 820 1227 1660 2002 2122
0 0 0 0 0 0 0 0 0 0 0 0 0 0 0 0 14 856 451 408 502 405 386 374 411 330 722 951 789 744 681 833 1005 1052 889 653 621 558 540 482 399 403 500 781 913 948 906 1004 978 974 898 813 874 828 816 770 881 859 814 1063 1177 1084 1082 1180 1356 1384 1168 1111 1038 869 659 713 810 1123 1461 1442 1051 1058 1119 798 736 848 1023 1387 1553 1829
0 0 0 0 0 0 0 0 0 0 0 0 0 0 0 17 0 296 245 287 210 32 3 335 444 309 339 627 882 558 589 717 1016 1062 977 712 584 554 599 552 681 662 660 782 278 818 1303 923 812 1324 1131 804 815 763 756 743 808 806 792 991 1197 1120 1036 1155 1307 1279 1154 1008 1020 880 717 668 776 1091 1348 1453 1284 1151 1211 1002 868 869 908 960 1389 1684
0 0 0 0 0 0 0 0 0 0 0 0 9 0 0 0 2 51 137 9 14 19 17 229 305 163 198 457 654 724 787 881 936 1060 1001 754 672 572 692 642 720 877 1538 1533 1358 1863 1280 1188 1038 1250 1038 883 837 790 733 624 622 618 736 981 1165 1093 1001 1032 1165 1227 1131 954 875 816 707 655 861 1075 1138 1415 1283 1209 1258 1192 1041 937 921 929 1103 1253
0 0 0 0 3 0 0 0 0 0 0 3 2 0 3 13 0 32 116 114 17 14 132 358 352 212 841 971 933 828 798 909 933 852 979 742 770 854 687 733 1222 1672 1586 1444 1534 1907 1653 1433 1319 1239 949 536 710 795 767 617 454 436 530 902 1152 996 930 880 897 1000 1011 890 759 788 768 678 919 1158 962 1206 1131 1233 1272 1255 1160 1089 1033 1051 1144 1155
0 0 0 0 0 0 0 0 0 0 0 3 0 0 2 4 2 7 36 148 124 274 301 526 639 644 865 698 738 809 736 839 899 913 947 843 669 868 957 1072 1666 1606 1527 1275 1284 1441 1622 1570 1451 1113 800 629 570 702 786 466 434 556 638 993 1103 861 809 844 835 888 1054 941 824 800 1127 752 1111 1252 1089 869 984 1070 1237 1246 1052 1143 1088 1124 1166 1211
0 0 0 0 0 0 0 0 0 0 0 13 3 1 5 1 0 3 32 7 4 189 289 502 303 436 677 477 857 840 901 955 909 1012 1062 1099 779 670 986 1251 1658 1503 1644 1588 1750 1282 1407 1506 1517 1112 804 703 758 774 691 471 393 577 842 1089 1132 903 826 847 927 962 1047 1162 1068 1078 1216 1065 1020 1250 1277 799 738 813 990 1132 1145 1485 1254 1208 1267 1271
0 0 0 0 0 0 0 0 0 0 0 1 2 0 0 2 1 0 3 1 183 267 280 644 702 639 572 779 1128 1123 1159 1263 1742 1465 1110 1200 897 675 912 1244 1445 1372 1388 1727 2064 1744 1265 1078 1475 1206 834 800 656 868 548 492 579 618 922 1194 1246 1090 995 947 1106 1097 1070 1251 1260 1309 1387 1294 1305 1832 1258 1002 1365 1118 1035 1384 1431 1739 1457 1462 1475 1436
0 0 0 0 0 0 0 0 0 0 0 0 0 0 1 0 0 4 122 105 315 354 498 552 763 767 887 1036 1182 1084 997 1736 1919 1726 1189 1093 884 879 773 842 1178 1215 1239 1454 2016 1861 1481 1060 1182 1227 1007 932 823 809 561 587 695 774 1054 1224 1299 1246 1096 990 1153 1154 1186 1216 1303 1404 1509 1325 1364 1629 1583 1310 1508 1340 1317 1622 1626 1929 1662 1805 1773 1698
0 0 0 0 0 0 0 0 0 0 0 0 0 0 0 1 0 0 4 2 3 245 405 559 562 695 901 790 911 881 824 1066 1877 2048 1816 1270 1106 1149 1166 990 893 1078 1218 1398 1799 1932 1730 1226 1186 1159 1246 1185 1038 900 570 638 772 951 1229 1241 1250 1374 1223 1128 1134 1144 1208 1236 1224 1335 1438 1369 1301 1425 1521 1424 1643 1533 1532 1786 1728 1915 1853 1896 2091 1972
0 0 0 0 0 0 0 0 0 0 0 0 0 1 0 6 1 0 0 2 20 179 406 572 515 611 680 438 732 903 881 939 1514 2011 2054 1789 1415 1351 1322 1241 1204 1254 1348 1499 1722 2075 1837 1589 1646 1678 1717 1546 1259 1086 660 739 612 877 1353 1314 1314 1404 1344 1264 1185 1129 1161 1230 1152 1170 1264 1263 1222 1284 1375 1430 1580 1658 1555 1682 1770 1837 1946 1881 1915 2074
0 0 0 0 0 0 0 0 0 0 0 0 0 0 0 1 0 0 0 4 2 77 375 339 388 499 456 486 744 982 1019 1270 1822 2091 2122 2036 1743 1369 1361 1347 1545 1494 1377 1504 1652 1915 1902 2019 2380 2381 2009 1692 1512 1191 894 862 804 1024 1458 1571 1394 1435 1371 1369 1294 1315 1198 1287 1167 1154 1175 1147 1121 1179 1262 1394 1396 1561 1585 1610 1663 1642 1587 1755 1889 1917
0 0 0 0 0 0 2 0 0 0 0 0 0 0 0 0 0 0 0 0 4 56 199 235 117 12 435 986 701 1025 1175 1356 1696 1996 2125 2023 1908 1722 1628 1629 1636 1630 1463 1408 1598 1799 1883 2024 2261 2530 2206 2086 1932 1715 1363 1041 890 1190 1505 1667 1487 1475 1401 1440 1393 1354 1270 1432 1339 1397 1334 1213 1221 1185 1249 1298 1336 1361 1314 1409 1412 1351 1231 1294 1670 1872
0 0 0 0 0 0 1 0 0 0 0 0 0 2 0 0 0 0 0 0 7 19 20 209 267 285 755 1142 1008 935 1258 1704 1957 2060 2054 2086 2094 2102 2125 1969 1692 1616 1510 1309 1312 1711 1696 1812 1987 2497 2394 2253 2074 1882 1595 1177 944 1279 1524 1651 1650 1573 1460 1473 1528 1426 1372 1467 1504 1444 1523 1396 1343 1342 1346 1231 1099 1185 1233 1256 1232 1249 1308 1333 1566 1720
0 0 0 0 0 0 0 0 0 0 0 0 0 2 1 0 0 0 0 0 0 2 151 211 317 312 956 1302 1119 1200 1634 1988 2040 2115 2154 2204 2273 2162 2048 2030 1907 1697 1862 1972 1713 1620 1747 1717 1780 1894 2426 2167 1993 1683 1339 1051 933 1211 1519 1640 1701 1697 1568 1516 1570 1525 1492 1503 1584 1496 1535 1511 1437 1477 1415 1246 1106 970 1031 1188 1267 1269 1282 1268 1210 1319
1815 0 0 0 0 0 0 0 0 0 0 0 0 0 0 0 0 0 0 0 2 0 99 189 248 595 725 1318 1190 1308 1267 1218 1960 2227 2214 2252 2313 2235 2102 2085 1995 1956 2201 2513 2358 2467 1763 1738 1708 1874 2541 2094 1955 1840 1362 1164 1016 939 1415 1598 1719 1780 1710 1628 1598 1572 1574 1558 1620 1594 1540 1507 1460 1463 1430 1218 1228 1216 1055 1009 1070 1083 1002 888 874 1039
0 1 0 0 0 0 0 0 0 0 0 0 0 0 0 0 0 0 0 0 0 0 12 0 1 0 0 1272 1449 1485 1441 1889 2156 2257 2232 2145 2145 2357 2373 2188 2225 2357 2510 2395 2396 2274 1995 1693 1689 1938 2472 2424 2135 2130 1660 1309 1275 1071 987 1247 1541 1734 1843 1762 1750 1653 1606 1602 1631 1643 1597 1533 1466 1460 1430 1286 1183 1213 1195 1049 876 845 785 766 691 900
0 0 0 0 0 0 0 0 0 0 0 0 0 0 0 0 0 0 4 0 0 0 80 11 1 50 934 1506 1541 1549 1410 1520 1996 2236 2230 1997 2078 2372 2562 2514 2381 2505 2464 2423 2338 2208 2035 1803 1687 1682 1985 2564 2421 2143 1743 1486 1433 1373 1143 993 904 1177 1706 1830 1762 1740 1696 1572 1634 1632 1676 1665 1520 1454 1430 1369 1259 1178 1127 1070 898 176 420 301 578 339
0 0 0 0 0 0 0 0 1 5 2 3 0 0 0 0 0 0 0 0 0 0 26 13 0 482 1068 1481 1545 1563 1573 1480 1603 1516 1831 2003 2004 2205 2494 2537 2498 2402 2338 2330 2347 2221 2275 2236 1932 1532 1309 2061 2521 2338 2140 1798 1553 1503 1406 1224 1034 931 1086 1536 1666 1602 1575 1493 1570 1531 1513 1654 1595 1399 1363 1344 1305 1216 1108 1008 945 798 216 375 220 290
0 0 0 0 0 0 0 0 0 79 0 0 0 0 0 0 0 0 0 3 0 0 0 0 19 538 638 1143 1228 1441 1562 1568 1643 1357 1617 2051 2124 2262 2137 2019 2907 2054 2360 2366 2421 2244 2153 2040 2178 2374 2099 1963 2343 2539 2406 2328 1981 1744 1536 1501 1354 1310 1455 1537 1456 1450 1382 1319 1446 1391 1328 1312 1435 1410 1273 1243 1228 1191 1104 950 754 466 71 243 191 168
0 0 0 0 0 0 0 0 0 0 0 0 0 0 0 0 0 0 0 0 0 0 0 0 190 416 497 1039 1105 1004 1477 1423 1477 1619 1260 1690 1926 1973 2017 2178 2193 1977 2111 2363 2282 2244 2183 2206 2231 2327 2464 2430 2210 2448 2410 2474 2405 2163 1917 1788 1841 1857 1809 1676 1451 1314 1224 1167 1254 1265 1174 1026 1081 1208 1205 1174 1106 1036 922 776 600 290 148 201 223 184
0 0 0 0 0 0 0 0 0 0 0 0 0 0 0 0 0 0 0 0 0 0 0 1 66 56 96 984 1142 1018 1247 1194 1167 1684 1463 1522 1751 1822 1782 2035 2044 1858 1735 1673 2084 2272 2248 2184 2232 2264 2239 2112 2586 2686 2150 1520 1658 1906 2101 2046 1998 1943 1870 1823 1700 1588 1475 1301 1230 1267 1247 1156 1069 1084 1089 945 945 936 915 580 490 230 266 275 203 154
0 0 241 0 0 0 0 0 0 0 0 0 0 0 0 0 1 2 0 1 0 0 141 197 219 238 284 888 971 863 1174 1129 982 1373 1659 1701 1670 1665 1632 1727 1939 1912 1802 1781 1772 1947 2212 2158 2184 2149 2150 2142 1899 2168 1890 1888 1639 1648 1944 2090 1991 1974 1902 1785 1722 1670 1658 1562 1392 1231 1330 1340 1172 1107 1285 1262 942 917 960 959 682 355 385 360 316 207
0 0 0 0 0 0 0 0 0 0 0 0 0 0 0 0 0 0 0 1 0 1 2 82 16 203 407 804 866 803 1129 1074 1109 1391 1612 1813 1774 1666 1583 1669 1708 1898 1860 1879 1686 1567 1978 2048 1971 2071 2132 2100 1977 1851 2131 2060 2055 1987 2000 2116 2240 1849 1845 1786 1630 1497 1437 1448 1420 1360 1200 1213 1312 1225 1572 1900 1599 1080 905 940 931 807 691 710 668 668
0 0 0 0 0 0 0 0 0 0 0 0 0 0 0 0 0 0 0 274 8 0 0 0 0 0 371 676 714 818 1009 979 1116 1379 1551 1672 1690 1478 1144 1010 1252 1568 1748 1823 1732 1893 1935 1924 1830 1868 1921 2006 2035 1960 2120 2218 2052 1931 1935 2062 2318 2301 2102 1795 1464 1399 1332 1332 1340 1302 1494 1674 1658 1549 1689 2122 2575 2391 1642 954 910 882 791 713 725 692
0 0 0 0 0 0 0 0 0 0 0 0 0 0 0 4 0 0 0 1 2 0 0 0 0 0 373 680 745 815 878 954 894 1258 1292 1259 1337 1237 1053 1104 1444 1617 1758 1756 1859 1737 1705 1750 1733 1762 1762 1835 2045 2064 2078 2178 2126 2066 2022 1966 2096 2457 2473 2226 1893 1538 1333 1204 1123 1204 1251 1476 1866 2162 2236 2278 2488 2797 2845 2179 1416 909 767 679 622 607
0 0 0 0 0 0 0 0 0 0 0 0 0 0 0 0 0 1 0 0 0 0 0 0 0 0 528 747 843 928 985 1015 1103 1220 1047 943 927 1390 1511 1480 1535 1639 1716 1735 1725 1676 1634 1574 1500 1482 1377 1646 1681 1768 2158 2386 2392 2090 1884 1836 1825 1764 1967 2162 2108 1946 1788 1625 1494 1353 1306 1307 1380 1622 1953 2256 2415 2559 2726 2770 2194 1507 1062 700 627 514
0 0 0 0 0 0 0 0 0 0 0 0 0 0 1 0 0 0 0 0 0 0 0 0 0 0 414 649 839 1062 1151 1313 1172 1086 941 759 735 1579 1693 1636 1567 1515 1648 1770 1738 1690 1656 1584 1526 1533 1664 1755 1530 1570 1619 1692 2030 2176 2080 1931 1855 1903 1816 1678 1619 1578 1656 1852 2007 1943 1822 1602 1530 1627 1716 1826 1969 2190 2475 2612 2640 2252 1716 1167 866 694
0 0 0 0 0 0 0 0 0 0 0 0 0 0 0 0 0 0 0 0 10 4 0 0 0 155 536 645 742 1112 1354 1294 1283 1316 1425 1093 1084 1307 1542 1635 1621 1674 1690 1668 1757 1763 1584 1514 1635 1738 1795 1662 1678 1769 1786 1880 1902 1878 1823 2049 2126 1904 1782 1700 1626 1618 1559 1523 1566 1611 1768 1888 1849 1671 1724 1842 1940 2076 2329 2549 2658 2639 2216 1744 1281 939
0 0 0 0 0 0 0 0 0 0 0 0 0 0 0 0 0 0 1 0 0 58 10 0 2 391 556 672 869 1254 1240 1206 1235 1267 1327 1202 1212 1191 1166 1423 1646 1614 1741 1752 1642 1610 1654 1707 1804 1778 1700 1653 1556 1508 1525 1597 1657 1638 1646 1626 1608 1552 1481 1447 1461 1460 1450 1496 1569 1668 1678 1593 1633 1681 1774 1946 2025 2096 2239 2484 2647 2737 2642 2070 1638 1319
0 0 0 0 0 0 0 0 0 0 0 0 0 0 0 0 0 0 0 2 11 558 132 84 261 536 601 680 965 1065 763 635 995 1368 1398 1256 957 842 899 1327 1435 1339 1364 1453 1516 1566 1585 1632 1687 1622 1535 1461 1463 1449 1432 1406 1416 1379 1348 1309 1284 1286 1284 1249 1260 1296 1353 1395 1484 1655 1719 1736 1745 1670 1570 1831 2044 2237 2410 2518 2649 2739 2747 2523 2031 1730
0 0 0 0 0 0 0 0 0 0 0 7 0 0 0 0 0 0 0 0 42 398 183 440 490 494 439 426 390 421 272 40 50 914 1451 1472 738 641 1113 1170 1243 1393 1441 1432 1405 1332 1400 1518 1531 1520 1499 1436 1379 1332 1300 1344 1486 1474 1332 1130 958 968 941 974 1342 1422 1464 1511 1609 1670 1720 1743 1793 1923 1956 1944 1952 2101 2311 2507 2627 2757 2780 2586 2335 2017
0 0 0 0 0 0 0 0 0 0 48 470 0 0 0 0 0 0 0 0 90 194 171 68 250 269 242 373 359 364 20 401 739 1158 1629 1235 1108 1061 1215 1163 1336 1406 1388 1438 1995 1822 1322 1237 1174 1151 1159 1196 1128 1090 1180 1270 1335 1235 989 890 872 795 1090 1187 1121 1115 1105 1115 1108 1083 1197 1423 1542 1589 1641 1829 1985 2095 2155 2225 2278 2354 2385 2486 2365 2071
0 0 2 2 3 0 1 0 0 5 8 0 0 0 0 0 0 0 0 0 134 176 256 96 201 156 0 0 40 1040 1321 1180 1186 1500 1594 1070 1097 1224 1261 1372 1512 1837 2205 2694 2267 1486 1227 1167 1097 1047 1070 1089 1118 1152 1189 1173 1126 1043 895 876 972 1093 1045 954 857 785 718 623 550 518 633 746 948 1153 1336 1444 1567 1641 1743 1764 1835 1835 1843 2016 2166 1899
0 0 0 0 0 0 0 0 0 6 0 0 0 0 0 0 256 0 215 606 215 145 164 156 50 11 6 8 412 1468 1300 1071 1121 1279 1444 1280 1417 1381 1338 1361 1458 1517 1546 1617 1672 1719 1240 1164 1094 1065 1092 1118 1114 1050 1070 1060 1023 1059 971 939 1032 1093 936 844 683 572 497 428 374 122 2 95 396 712 977 1135 1202 1326 1398 1367 1368 1427 1552 1634 1784 1624
36 0 74 0 0 0 0 0 0 0 0 5 0 14 9 11 231 143 73 270 390 445 443 255 674 385 387 684 1420 1482 1302 1109 1049 1208 1395 1511 1493 1452 1421 1404 1489 1540 1568 1542 1469 1392 1311 1254 1182 1184 1180 1166 1083 1048 1122 1147 1112 1060 1026 962 918 894 765 655 533 461 428 356 204 0 0 0 0 215 728 926 985 1108 1246 1294 1251 1239 1410 1529 1623 1570
0 55 25 138 24 7 55 7 11 20 22 8 90 63 269 387 313 378 376 10 61 444 560 340 472 448 542 1035 1371 1477 1208 1143 1289 1512 1628 1627 1580 1511 1451 1463 1481 1489 1545 1608 1644 1636 1283 1165 1211 1108 1071 1059 1089 1062 991 961 1045 1039 878 841 798 768 562 482 443 430 371 117 0 0 0 0 0 0 67 458 757 950 1032 1218 1125 1125 1194 1229 1239 1372
18 86 119 210 7 88 35 22 72 144 123 216 334 346 339 320 257 151 185 195 180 566 537 469 540 518 514 898 1252 1386 1090 1170 1446 1633 1675 1666 1601 1494 1409 1391 1384 1460 1469 1400 1312 1284 1184 1174 1152 1074 1142 1204 1117 1012 961 970 917 922 934 859 769 707 656 549 470 431 368 298 258 170 0 0 0 0 0 0 351 638 816 948 1113 1273 1233 1154 1238 1295
16 9 1 98 156 50 80 106 210 238 196 271 419 460 443 257 75 95 158 130 61 479 494 602 652 643 563 476 795 1001 1324 1428 1522 1659 1716 1675 1632 1538 1442 1344 1371 1390 1388 1396 1291 1261 1200 1104 1000 956 978 1062 1066 1030 978 1004 1020 973 929 846 738 602 549 475 419 360 301 41 43 0 0 0 0 0 0 0 0 373 604 673 729 845 966 1103 1233 1314
28 67 3 1 6 63 22 199 272 266 263 282 224 264 172 364 312 466 325 259 248 3 40 176 414 789 918 1086 1311 1452 1602 1641 1643 1647 1635 1631 1597 1538 1457 1368 1292 1223 1306 1361 1329 1222 1074 1009 966 870 820 876 936 984 953 963 1007 940 865 844 761 731 679 591 460 306 301 0 0 0 0 0 0 179 326 254 39 32 206 417 550 586 656 752 801 982
160 16 43 50 60 213 348 337 318 338 278 181 176 185 364 359 310 421 500 527 516 465 283 773 1009 1197 1236 1449 1659 1727 1756 1725 1661 1627 1592 1563 1504 1475 1424 1339 1174 1216 1225 1246 1190 1130 1062 992 946 900 857 833 806 848 953 881 871 933 926 896 820 751 683 600 567 433 345 203 0 0 130 216 8 205 0 234 315 103 0 12 140 258 408 471 541 626
69 19 151 278 252 339 371 417 299 179 202 68 290 590 599 482 461 415 309 187 155 280 634 1168 1352 1284 1332 1488 1680 1828 1866 1836 1774 1706 1568 1573 1528 1497 1336 1188 1149 1080 991 909 1010 1090 1104 1024 954 834 747 661 686 755 884 957 922 957 968 878 759 693 603 557 612 574 368 341 71 0 210 145 0 106 212 269 364 397 343 177 0 0 240 431 482 477
12 18 310 22 118 207 256 374 469 378 473 152 147 535 525 527 408 315 376 494 657 693 836 1202 1352 1286 1319 1511 1572 1613 1641 1647 1683 1653 1596 1576 1534 1369 1205 1024 1091 1044 939 871 899 960 1034 994 913 711 653 626 639 687 800 943 868 928 903 857 796 747 527 548 605 591 516 410 392 344 247 0 0 0 134 122 18 210 396 298 18 31 298 413 513 624
Wind_Speed
nan nan nan nan nan nan nan nan nan nan nan nan nan nan nan nan 4 3 1 1 10 11 14 17 17 9 9 9 9 12 13 10 6 8 9 5 5 8 9 10 12 15 19 22 27 28 28 23 21 20 16 9 15 14 16 16 16 15 13 14 13 11 11 10 11 10 10 10 11 12 12 11 11 11 12 12 13 13 14 17 16 16 18 18 13 11
nan nan nan nan nan nan nan nan nan nan nan nan nan nan nan nan 5 6 6 5 13 16 10 15 15 12 14 11 9 10 13 11 10 10 9 6 5 8 11 11 12 16 20 27 30 30 33 22 17 18 17 8 15 13 15 16 16 14 13 12 12 11 10 10 11 11 9 9 10 11 10 10 9 9 10 12 13 13 14 18 16 16 18 17 13 12
nan nan nan nan nan nan nan nan nan nan nan nan nan nan nan nan 9 5 3 8 14 13 12 19 19 12 13 13 10 12 13 12 12 14 13 11 7 9 12 12 13 20 24 30 33 31 30 25 18 19 18 7 14 17 16 16 17 15 11 10 11 10 9 8 10 11 9 10 11 11 10 9 8 9 10 12 13 13 14 17 16 15 16 16 13 12
nan nan nan nan nan nan nan nan nan nan nan nan nan nan nan nan nan nan 0 10 12 14 16 21 25 13 8 8 9 10 14 12 13 15 16 15 14 14 16 16 18 20 25 27 31 32 29 24 21 20 18 7 14 16 14 16 17 12 10 9 11 10 8 8 8 10 11 11 13 13 11 8 6 6 10 14 15 13 14 16 16 15 15 15 13 11
nan nan nan nan nan nan nan nan nan nan nan nan nan nan nan nan nan nan 7 11 14 15 20 26 21 14 11 11 8 9 10 14 14 16 16 16 18 20 21 23 22 22 25 27 23 27 26 23 21 17 14 8 14 14 13 15 14 9 12 10 12 12 11 8 8 10 12 13 14 14 13 11 11 10 11 14 13 11 13 15 14 11 12 12 12 12
nan nan nan nan nan nan nan nan nan nan nan nan nan nan nan nan nan nan 14 20 14 14 12 23 18 16 11 8 9 9 11 14 14 17 17 17 17 18 21 22 24 23 20 20 22 25 24 22 19 15 16 10 12 11 11 13 13 13 11 10 11 12 12 11 10 11 12 11 12 13 12 10 11 9 10 9 8 11 13 12 10 10 8 9 13 14
nan nan nan nan nan nan nan nan nan nan nan nan nan nan nan nan nan 9 17 15 12 13 11 16 18 16 16 13 14 11 13 12 13 17 17 17 17 18 18 20 25 22 18 17 22 22 20 20 20 16 15 13 14 10 11 12 13 13 13 11 12 14 13 12 12 11 11 11 11 11 11 10 10 8 11 11 11 10 13 12 7 8 8 9 12 16
nan nan nan nan nan nan nan nan nan nan nan nan nan nan nan nan 14 12 16 15 11 10 13 17 19 22 18 14 14 16 17 14 14 14 15 15 15 16 16 18 22 23 14 17 17 19 20 17 16 16 9 13 13 10 12 14 13 13 11 11 12 14 14 12 12 11 10 10 10 11 11 10 9 7 8 9 10 10 12 10 7 10 10 12 16 17
nan nan nan nan nan nan nan nan nan nan nan nan nan nan nan nan 11 18 18 14 14 19 14 16 21 20 17 13 13 17 15 12 13 13 12 10 11 12 15 17 21 21 15 11 12 16 19 17 15 13 9 12 11 9 11 12 12 10 7 8 9 13 13 11 11 9 8 8 9 10 10 9 8 8 9 9 10 10 11 9 10 11 11 13 19 18
nan nan nan nan nan nan nan nan nan nan nan nan nan nan nan nan nan 20 19 20 18 21 17 17 20 20 15 11 9 9 11 12 13 13 11 8 10 12 14 15 18 20 12 5 12 17 19 22 15 12 11 10 8 10 12 11 11 8 5 5 8 11 10 10 9 7 7 7 9 10 9 7 7 7 9 9 8 9 10 8 7 10 10 12 18 18
nan nan nan nan nan nan nan nan nan nan nan nan nan nan nan nan nan 17 22 22 22 nan nan 18 19 20 13 8 11 11 9 13 13 11 11 9 11 13 12 13 16 14 10 9 12 15 18 17 12 11 10 9 10 11 11 9 7 6 4 3 5 8 8 8 7 4 5 6 7 8 8 8 8 8 9 9 8 9 11 10 10 10 13 16 18 18
nan nan nan nan nan nan nan nan nan nan nan nan nan nan nan nan nan nan 8 nan nan nan nan 10 14 12 10 5 5 8 5 14 18 15 16 12 13 14 14 13 13 13 10 12 11 15 16 13 10 12 12 9 8 10 8 7 5 4 2 1 2 5 6 5 3 1 3 4 7 10 9 8 10 10 10 10 8 8 9 12 13 13 16 19 18 17
nan nan nan nan nan nan nan nan nan nan nan nan nan nan nan nan nan nan 0 2 nan nan 5 14 15 6 4 7 6 6 8 9 11 16 18 17 16 15 15 15 14 15 11 8 12 15 14 10 10 12 11 8 7 7 5 5 4 2 0 1 3 5 5 3 1 3 3 4 7 10 10 9 11 12 11 12 12 12 12 16 17 16 17 16 15 13
nan nan nan nan nan nan nan nan nan nan nan nan nan nan nan nan nan nan nan 2 2 6 5 8 8 6 5 2 5 8 9 10 12 12 16 19 19 18 18 17 16 17 17 11 7 8 8 10 12 11 9 7 6 6 5 4 3 2 2 2 3 4 4 2 3 6 7 7 7 9 10 9 11 13 14 13 13 14 17 19 18 17 15 14 13 12
nan nan nan nan nan nan nan nan nan nan nan nan nan nan nan nan nan nan nan nan nan 8 5 3 8 6 9 6 6 9 7 7 10 13 14 16 17 15 13 14 14 14 14 11 7 6 5 8 10 9 9 9 7 5 6 6 5 3 3 3 3 1 3 3 4 8 10 10 10 11 12 12 12 14 15 15 14 14 17 19 18 17 15 14 14 13
nan nan nan nan nan nan nan nan nan nan nan nan nan nan nan nan nan nan nan nan 7 9 9 7 8 9 9 5 6 6 6 6 8 13 13 13 12 12 13 15 15 14 15 14 11 7 3 8 10 10 9 9 8 6 7 6 5 3 3 3 3 1 4 5 4 8 10 11 11 11 13 14 13 14 15 15 15 14 15 17 16 15 14 14 14 15
nan nan nan nan nan nan nan nan nan nan nan nan nan nan nan nan nan nan 8 11 19 16 9 9 10 9 6 3 3 4 6 6 7 10 14 13 13 14 15 16 17 17 16 15 15 10 1 7 8 8 8 7 7 5 4 4 3 4 5 3 4 4 5 6 5 6 8 10 10 11 13 13 13 13 13 14 14 12 12 13 14 14 13 14 14 14
nan nan nan nan nan nan nan nan nan nan nan nan nan nan nan nan nan nan nan nan nan 17 8 10 10 9 9 4 3 6 7 7 9 10 12 12 13 15 16 16 17 19 18 15 14 13 6 3 4 5 7 5 5 3 3 3 4 7 9 5 5 5 4 6 6 5 6 7 9 10 11 12 12 13 13 13 13 12 11 12 13 14 13 13 13 13
nan nan nan nan nan nan nan nan nan nan nan nan nan nan nan nan nan nan nan nan nan 14 10 9 8 7 11 5 7 6 8 8 9 8 8 8 12 16 16 16 15 15 15 14 13 13 9 3 4 4 4 4 4 5 3 5 6 8 9 8 7 5 4 4 7 6 5 5 7 9 10 11 11 12 13 13 13 13 12 13 14 14 15 15 14 13
nan nan nan nan nan nan nan nan nan nan nan nan nan nan nan nan nan nan nan nan nan nan 13 7 12 8 9 8 10 8 7 11 10 8 8 8 10 13 13 15 15 14 14 14 12 11 10 7 6 8 8 7 6 6 5 6 8 8 8 8 8 9 8 6 6 7 6 4 6 7 8 9 10 10 10 11 11 12 12 13 13 15 15 15 14 14
nan nan nan nan nan nan nan nan nan nan nan nan nan nan nan nan nan nan nan nan nan nan 13 14 12 nan 9 10 11 10 9 11 12 10 9 10 10 11 11 13 13 13 12 13 12 11 11 8 5 7 10 10 9 8 7 6 7 9 10 8 8 8 7 6 5 6 7 5 5 5 5 5 6 7 7 8 8 10 12 13 14 14 14 15 14 14
nan nan nan nan nan nan nan nan nan nan nan nan nan nan nan nan nan nan nan nan nan nan nan 19 14 13 11 11 10 13 9 11 12 15 12 11 10 11 9 9 12 12 10 11 12 12 11 9 7 7 8 12 12 9 7 7 10 11 10 9 9 11 10 8 7 7 7 7 6 3 3 3 3 3 5 4 6 7 9 11 11 12 13 13 13 12
nan nan nan nan nan nan nan nan nan nan nan nan nan nan nan nan nan nan nan nan nan nan 24 21 23 15 13 12 10 9 8 11 13 14 11 10 10 8 7 7 7 9 9 8 9 10 9 9 8 9 9 8 9 8 8 8 9 11 11 10 11 11 10 9 9 8 7 7 7 4 2 2 1 1 2 2 5 5 5 7 8 9 10 11 12 12
25 nan nan nan nan nan nan nan nan nan nan nan nan nan nan nan nan nan nan nan nan nan nan 22 24 17 12 10 10 8 9 10 11 12 12 10 10 8 7 7 8 7 6 5 6 5 8 7 6 7 7 6 7 10 10 9 9 12 12 11 12 11 11 12 11 10 9 8 7 6 3 2 2 1 2 1 4 4 4 5 6 7 8 8 10 9
nan nan nan nan nan nan nan nan nan nan nan nan nan nan nan nan nan nan nan nan nan nan nan nan nan nan nan 12 11 11 11 11 11 10 12 12 9 9 9 8 7 7 6 5 5 5 7 7 7 8 7 6 5 9 13 11 9 10 12 12 12 13 12 13 15 12 10 9 7 7 6 3 3 3 3 2 3 3 4 5 5 6 6 7 8 8
nan nan nan nan nan nan nan nan nan nan nan nan nan nan nan nan nan nan nan nan nan nan nan nan nan nan 14 13 12 11 11 10 10 11 9 9 11 11 9 9 8 8 8 6 5 6 8 8 7 7 7 7 6 7 9 10 10 9 10 10 11 13 14 14 17 17 13 11 9 9 8 6 5 4 4 3 3 3 4 5 6 6 6 7 6 8
nan nan nan nan nan nan nan nan nan nan nan nan nan nan nan nan nan nan nan nan nan nan nan nan nan 22 18 12 11 8 8 10 10 10 11 9 8 10 11 11 11 10 9 8 7 7 7 9 9 7 8 8 8 6 6 7 8 9 10 10 11 14 16 16 17 18 15 12 11 12 10 8 7 7 6 5 4 4 6 6 6 6 6 6 6 7
nan nan nan nan nan nan nan nan nan nan nan nan nan nan nan nan nan nan nan nan nan nan nan nan nan 23 14 13 10 8 7 8 10 9 9 9 10 13 13 12 13 12 10 9 9 8 8 7 8 9 10 10 9 9 7 5 6 8 10 10 12 15 16 18 18 18 17 14 12 12 12 11 10 9 8 7 6 5 6 7 7 7 nan 8 7 7
nan nan nan nan nan nan nan nan nan nan nan nan nan nan nan nan nan nan nan nan nan nan nan nan 20 17 15 15 12 9 10 10 10 11 12 13 14 13 15 14 14 13 12 12 10 9 9 8 8 9 10 11 11 11 10 10 11 11 10 10 11 14 15 18 18 18 17 16 14 12 14 15 14 13 11 10 8 6 5 6 8 9 9 7 7 8
nan nan nan nan nan nan nan nan nan nan nan nan nan nan nan nan nan nan nan nan nan nan nan nan nan nan nan 16 13 10 10 11 10 12 16 17 15 15 14 14 13 13 12 12 11 11 9 8 9 9 10 12 14 13 19 24 22 14 6 5 7 10 13 17 16 17 17 16 15 16 17 17 18 18 17 14 10 8 7 7 8 7 8 7 6 6
nan nan 25 nan nan nan nan nan nan nan nan nan nan nan nan nan nan nan nan nan nan nan 20 23 22 18 14 19 15 11 11 12 13 15 16 15 15 13 12 11 12 12 12 12 11 11 11 9 9 10 11 11 14 19 24 13 8 5 10 13 11 9 10 13 15 17 18 17 18 18 18 18 17 18 18 18 16 11 8 8 8 8 7 7 7 6
nan nan nan nan nan nan nan nan nan nan nan nan nan nan nan nan nan nan nan nan nan nan nan nan nan 18 16 17 15 13 13 12 12 12 13 13 12 13 12 10 10 11 13 14 12 11 12 11 10 10 11 12 14 19 22 14 12 14 14 15 14 11 11 11 15 18 19 19 19 19 18 18 18 18 18 19 18 16 12 9 9 10 9 8 7 8
nan nan nan nan nan nan nan nan nan nan nan nan nan nan nan nan nan nan nan 16 nan nan nan nan nan nan 18 16 17 14 15 11 11 10 12 11 12 14 13 12 12 13 13 14 14 15 14 13 11 11 11 13 15 18 19 18 18 16 16 16 16 18 16 14 14 18 20 19 18 18 19 19 19 18 19 19 19 19 17 13 10 10 11 9 9 9
nan nan nan nan nan nan nan nan nan nan nan nan nan nan nan nan nan nan nan nan nan nan nan nan nan nan 18 17 18 16 16 14 13 11 12 17 15 14 14 14 15 14 15 15 15 16 16 15 16 14 13 14 16 17 18 19 19 17 17 17 19 18 16 14 13 17 22 23 20 19 20 21 20 20 20 21 21 22 21 18 13 11 13 14 13 10
nan nan nan nan nan nan nan nan nan nan nan nan nan nan nan nan nan nan nan nan nan nan nan nan nan nan 20 19 20 18 17 15 16 18 13 14 18 17 16 14 14 14 14 16 17 18 18 19 18 18 18 17 18 19 21 20 19 20 19 21 21 19 18 16 15 16 20 23 23 22 23 24 23 22 23 25 24 23 21 20 19 17 16 16 15 13
nan nan nan nan nan nan nan nan nan nan nan nan nan nan nan nan nan nan nan nan nan nan nan nan nan nan 15 14 14 17 19 17 15 14 16 15 17 17 15 13 12 13 14 14 16 17 19 20 19 18 16 15 17 18 19 19 21 21 20 22 24 24 22 19 17 16 20 24 26 26 26 26 25 25 25 25 25 24 21 20 20 20 20 21 20 19
nan nan nan nan nan nan nan nan nan nan nan nan nan nan nan nan nan nan nan nan nan nan nan nan nan 16 14 13 15 14 16 17 15 12 13 17 17 17 17 14 14 13 13 13 16 17 18 20 21 19 19 19 20 21 22 23 25 27 28 28 28 28 27 24 21 19 17 18 20 24 26 27 26 24 23 24 23 22 21 21 21 21 23 23 23 23
nan nan nan nan nan nan nan nan nan nan nan nan nan nan nan nan nan nan nan nan nan nan nan nan nan 16 15 13 15 15 18 21 16 11 11 14 19 19 15 16 15 16 16 16 16 19 20 20 20 21 23 21 21 21 21 22 24 25 25 25 26 28 28 28 26 24 22 20 19 19 21 23 25 25 24 23 21 20 21 22 25 24 27 27 26 24
nan nan nan nan nan nan nan nan nan nan nan nan nan nan nan nan nan nan nan nan nan 14 13 nan 20 18 21 21 18 18 19 18 14 13 11 14 17 19 21 20 19 17 17 17 18 19 19 20 21 21 23 23 22 21 21 22 23 23 24 25 26 27 28 28 28 27 25 23 23 23 21 21 23 24 23 22 22 22 22 24 26 32 34 31 29 26
nan nan nan nan nan nan nan nan nan nan nan nan nan nan nan nan nan nan nan nan nan 14 15 17 20 19 18 18 19 20 22 nan nan 14 16 17 19 20 26 27 24 22 20 19 18 17 18 19 21 22 23 23 21 20 20 21 23 23 24 25 26 25 24 24 25 26 28 28 28 27 25 24 23 23 24 23 25 26 25 26 32 30 26 20 20 23
nan nan nan nan nan nan nan nan nan nan nan 27 nan nan nan nan nan nan nan nan nan 15 16 nan 21 20 21 19 19 19 nan 18 18 21 23 21 24 23 25 26 24 22 21 20 20 21 21 20 21 23 23 22 22 21 21 21 21 22 23 24 25 24 25 27 30 31 31 32 32 32 30 27 23 22 23 25 27 28 27 26 24 23 23 23 26 29
nan nan nan nan nan nan nan nan nan nan nan nan nan nan nan nan nan nan nan nan 23 16 16 nan 21 18 nan nan nan 20 19 17 21 23 24 24 25 23 26 28 27 24 22 22 23 22 21 22 22 22 22 21 21 22 22 22 22 21 21 22 22 23 27 29 31 32 32 33 33 35 36 34 30 26 25 27 29 29 27 27 27 25 24 26 29 31
nan nan nan nan nan nan nan nan nan nan nan nan nan nan nan nan 19 nan 25 20 21 20 20 16 nan nan nan nan 19 23 22 21 23 26 28 27 27 26 26 26 26 25 25 25 23 22 23 23 22 21 20 20 20 21 22 23 23 22 22 21 21 24 26 29 31 33 33 33 33 35 nan nan 37 36 33 30 29 28 27 27 27 26 27 29 32 41
nan nan nan nan nan nan nan nan nan nan nan nan nan nan nan nan 25 25 nan 23 18 20 19 20 16 17 18 24 23 23 24 25 24 29 30 28 26 25 25 26 25 24 24 24 25 25 25 25 23 22 21 21 21 22 22 23 24 23 23 22 24 25 27 28 29 32 34 35 35 nan nan nan nan 39 39 36 33 31 29 29 28 28 29 32 37 40
nan nan nan 39 nan nan nan nan nan nan nan nan nan nan 25 23 25 23 24 nan nan 20 19 23 20 19 22 24 25 25 23 22 26 28 31 27 26 27 27 26 26 25 25 26 26 25 26 27 25 23 22 22 22 22 22 23 23 24 24 23 24 26 26 27 28 30 32 34 nan nan nan nan nan nan nan 41 41 36 31 28 29 30 32 34 39 36
nan nan 39 42 nan nan nan nan nan 31 33 36 34 30 25 19 20 22 24 24 20 21 21 23 20 21 21 24 26 21 23 23 25 23 25 24 25 25 27 27 26 26 27 27 27 27 27 27 26 25 24 24 24 24 23 23 24 23 22 22 22 24 26 27 28 30 32 32 35 38 nan nan nan nan nan nan 41 40 38 35 34 34 35 34 36 33
nan nan nan nan 42 nan nan 38 40 34 35 38 37 29 23 20 nan nan 24 25 nan 23 24 22 23 21 22 23 26 27 26 26 26 24 24 24 25 25 26 27 27 28 29 28 27 27 27 27 26 25 26 25 25 24 24 24 24 23 21 21 22 24 25 26 29 30 30 nan nan nan nan nan nan nan nan nan nan 43 43 42 39 39 37 35 33 31
nan nan nan nan nan nan nan 40 39 38 38 37 34 29 25 24 24 23 24 23 24 nan nan 24 25 25 24 26 26 30 27 27 28 25 24 25 25 24 24 26 27 27 27 27 27 27 26 26 26 26 27 26 26 24 24 26 25 23 22 21 23 24 23 24 25 26 27 nan nan nan nan nan nan 40 37 38 nan nan 46 47 45 41 37 35 32 27
44 nan nan nan nan 49 52 51 46 43 43 38 33 28 26 28 29 28 27 27 26 27 26 26 27 26 27 28 27 29 27 22 24 26 27 25 24 23 23 24 26 28 27 27 26 27 28 28 27 27 29 27 26 24 24 25 24 23 23 23 24 22 22 22 23 24 25 26 nan nan 35 38 nan 39 nan 37 38 41 nan nan 47 44 39 36 33 30
nan nan 45 48 50 49 50 50 51 48 41 nan 34 32 31 29 33 32 30 29 28 28 29 31 27 26 27 27 28 28 28 23 23 27 28 25 24 24 24 24 25 27 27 27 27 28 28 28 28 30 29 27 26 24 22 23 23 22 21 21 21 22 22 22 22 24 24 24 nan nan 29 34 nan 38 38 38 37 38 42 51 nan nan 43 39 33 31
nan nan 48 nan 47 46 42 45 48 47 42 35 35 32 31 31 34 34 32 29 26 28 30 31 29 26 25 22 25 28 27 27 25 27 27 25 24 24 25 26 27 27 27 27 28 27 27 26 27 28 27 26 26 23 22 21 22 21 20 20 20 21 22 21 22 23 24 25 25 27 29 nan nan nan 38 38 nan 39 41 44 nan nan 54 46 46 48
Wind_Direction
nan nan nan nan nan nan nan nan nan nan nan nan nan nan nan nan 297 270 292 35 337 313 347 350 360 320 332 318 287 281 283 276 261 264 271 278 310 311 304 298 311 310 304 293 291 287 279 268 272 272 239 264 297 307 313 312 312 321 320 314 310 297 289 282 277 271 264 258 245 235 236 228 223 221 214 203 197 202 193 187 191 202 206 211 214 211
nan nan nan nan nan nan nan nan nan nan nan nan nan nan nan nan 304 10 22 341 348 328 324 328 340 354 337 312 301 285 288 297 305 289 291 305 294 284 286 285 297 301 288 288 284 287 282 273 270 265 257 261 296 302 309 311 314 317 316 317 312 297 289 283 282 276 268 260 254 245 243 235 234 226 212 203 194 196 185 182 189 202 205 205 207 212
nan nan nan nan nan nan nan nan nan nan nan nan nan nan nan nan 292 306 294 335 344 307 308 324 326 336 326 309 306 309 306 313 309 302 301 311 304 290 284 289 286 292 290 287 288 288 282 283 273 273 263 246 291 300 303 306 308 311 311 314 313 307 296 282 277 273 270 254 244 246 241 247 232 205 203 199 191 191 179 178 183 197 199 198 203 211
nan nan nan nan nan nan nan nan nan nan nan nan nan nan nan nan nan nan 240 320 304 299 314 312 304 311 305 296 299 306 310 305 301 297 292 312 330 308 303 305 298 292 285 285 293 289 288 281 266 273 268 258 287 288 294 302 306 304 301 309 310 308 299 285 273 268 253 252 244 239 247 236 231 213 198 195 189 185 180 173 175 185 192 197 204 210
nan nan nan nan nan nan nan nan nan nan nan nan nan nan nan nan nan nan 330 292 293 284 303 296 291 304 306 308 293 288 293 292 289 288 293 297 301 304 299 289 284 284 288 289 281 268 265 264 277 282 266 263 285 287 299 301 304 296 307 312 313 308 304 282 276 261 248 247 237 237 238 223 205 195 194 194 184 170 167 176 176 178 189 198 197 199
nan nan nan nan nan nan nan nan nan nan nan nan nan nan nan nan nan nan 288 285 280 295 304 302 294 304 307 312 303 302 284 286 293 291 288 294 295 299 300 294 282 274 267 269 253 260 253 251 247 245 262 267 264 277 296 301 305 306 300 306 306 299 295 287 271 263 253 245 241 241 242 229 206 181 173 178 176 162 163 166 179 192 186 189 187 185
nan nan nan nan nan nan nan nan nan nan nan nan nan nan nan nan nan 283 295 262 272 292 322 294 296 300 298 310 318 321 295 295 292 287 294 297 299 302 307 302 287 286 286 265 269 264 264 251 242 240 254 257 254 254 271 282 295 305 308 315 311 298 291 286 272 263 253 242 230 239 241 235 221 183 155 168 170 165 175 182 185 194 179 168 177 174
nan nan nan nan nan nan nan nan nan nan nan nan nan nan nan nan 272 282 277 260 263 268 271 280 290 301 313 324 328 319 310 312 301 301 304 309 308 307 311 311 301 300 296 270 262 247 249 255 243 242 229 252 254 255 266 278 288 299 312 321 310 294 292 289 278 265 254 247 228 226 226 227 223 194 171 166 162 173 187 179 171 185 162 160 173 170
nan nan nan nan nan nan nan nan nan nan nan nan nan nan nan nan 265 271 268 268 271 278 283 274 283 290 314 332 316 318 315 319 313 316 317 322 326 324 325 316 309 309 299 270 234 228 233 234 237 248 243 240 246 256 269 279 280 282 305 316 303 299 301 297 286 266 247 236 224 218 214 215 203 205 193 168 161 175 179 175 172 171 158 166 174 168
nan nan nan nan nan nan nan nan nan nan nan nan nan nan nan nan nan 270 271 271 266 270 298 303 296 299 309 313 304 313 328 336 326 326 323 327 337 339 330 319 312 314 296 238 242 215 208 201 205 238 240 236 232 238 250 262 267 264 270 306 309 311 313 304 293 265 237 219 210 207 197 197 187 194 191 168 159 170 173 169 156 166 167 166 169 164
nan nan nan nan nan nan nan nan nan nan nan nan nan nan nan nan nan 242 243 254 259 nan nan 319 315 302 301 325 338 327 338 331 327 325 323 318 326 333 332 325 325 328 327 269 236 185 191 209 200 216 224 213 219 228 240 250 263 272 297 312 324 330 325 313 298 266 232 202 188 187 189 184 172 175 179 170 161 169 174 161 163 174 164 160 157 160
nan nan nan nan nan nan nan nan nan nan nan nan nan nan nan nan nan nan 206 nan nan nan nan 308 308 290 298 316 360 354 311 333 336 339 343 349 352 341 339 339 346 357 346 283 241 213 215 224 215 204 206 204 214 224 232 246 257 284 326 6 338 341 340 326 296 266 208 180 167 175 187 182 163 162 163 159 161 164 161 155 165 160 159 154 159 163
nan nan nan nan nan nan nan nan nan nan nan nan nan nan nan nan nan nan 181 111 nan nan 323 318 308 273 317 341 359 335 336 345 349 339 349 359 3 354 351 352 355 1 355 307 261 235 225 218 202 202 205 197 195 209 239 258 243 232 358 45 3 10 6 349 2 72 102 134 150 166 176 169 156 146 148 151 157 161 148 151 160 154 146 154 161 162
nan nan nan nan nan nan nan nan nan nan nan nan nan nan nan nan nan nan nan 342 166 278 286 318 306 310 1 340 330 352 3 359 354 355 356 360 5 6 1 360 359 360 360 342 285 254 230 200 187 194 201 191 181 204 222 221 194 171 171 138 55 35 33 27 86 85 91 97 118 138 152 142 138 133 136 141 143 142 139 143 150 149 148 151 153 165
nan nan nan nan nan nan nan nan nan nan nan nan nan nan nan nan nan nan nan nan nan 328 305 288 305 338 314 328 322 342 352 352 346 359 7 8 10 14 13 4 0 3 8 358 315 291 256 210 198 191 182 179 186 204 215 197 174 176 179 134 90 77 83 69 86 101 97 103 106 120 126 121 123 128 130 133 136 137 137 138 144 146 151 153 159 169
nan nan nan nan nan nan nan nan nan nan nan nan nan nan nan nan nan nan nan nan 294 282 247 236 300 303 313 325 307 318 331 349 350 358 1 12 11 6 18 17 10 11 12 9 350 321 257 200 197 187 177 175 196 207 211 206 183 166 172 132 122 141 107 94 94 104 103 112 117 124 122 116 118 127 134 134 139 141 138 140 145 148 153 159 169 173
nan nan nan nan nan nan nan nan nan nan nan nan nan nan nan nan nan nan 263 257 267 261 270 282 268 262 268 252 294 283 313 330 326 333 355 10 13 7 17 20 18 15 13 14 4 352 311 178 178 178 181 176 193 205 219 217 186 169 181 161 173 195 146 113 99 97 108 115 121 122 126 124 124 126 136 138 140 138 142 149 151 156 160 169 175 178
nan nan nan nan nan nan nan nan nan nan nan nan nan nan nan nan nan nan nan nan nan 271 272 264 273 260 258 279 277 296 311 320 323 335 350 7 13 11 16 15 17 16 14 12 7 1 350 195 187 171 176 182 183 204 224 245 200 181 178 177 189 200 170 127 113 98 100 107 110 113 118 122 121 128 138 144 145 151 159 167 163 167 171 173 178 181
nan nan nan nan nan nan nan nan nan nan nan nan nan nan nan nan nan nan nan nan nan 239 238 247 243 257 290 284 278 313 332 329 334 334 336 360 5 10 11 11 14 14 11 5 359 353 352 307 239 222 194 201 205 209 218 239 219 196 186 188 184 193 188 146 126 118 109 96 107 107 105 111 117 127 135 141 147 159 166 170 169 167 170 173 182 186
nan nan nan nan nan nan nan nan nan nan nan nan nan nan nan nan nan nan nan nan nan nan 242 242 241 255 277 277 312 333 341 329 325 331 343 357 359 354 359 3 4 8 13 8 359 350 348 341 287 263 247 242 238 225 225 243 218 204 196 204 195 192 192 186 146 131 115 100 94 93 104 111 121 130 134 138 144 153 161 165 169 166 166 166 179 189
nan nan nan nan nan nan nan nan nan nan nan nan nan nan nan nan nan nan nan nan nan nan 264 266 249 nan 250 280 307 339 336 326 315 324 332 332 338 346 350 356 2 3 8 10 4 354 349 353 324 297 266 252 239 232 237 235 219 204 203 207 211 212 202 194 178 151 135 134 114 99 90 94 112 121 141 143 150 158 161 165 166 166 161 167 172 186
nan nan nan nan nan nan nan nan nan nan nan nan nan nan nan nan nan nan nan nan nan nan nan 266 266 254 263 281 307 322 324 305 306 314 325 325 323 330 341 349 356 359 5 6 6 359 353 346 337 327 286 248 238 230 236 227 209 201 201 204 210 215 209 204 198 181 161 155 147 131 109 99 117 134 160 162 163 169 172 169 166 165 167 169 171 180
nan nan nan nan nan nan nan nan nan nan nan nan nan nan nan nan nan nan nan nan nan nan 250 262 265 264 284 292 291 302 309 306 306 310 319 326 327 335 344 346 352 347 345 353 360 2 356 345 337 338 329 276 247 235 231 226 212 202 205 209 207 214 213 212 207 203 193 177 167 164 167 157 156 175 173 201 196 180 183 178 171 172 173 172 178 181
259 nan nan nan nan nan nan nan nan nan nan nan nan nan nan nan nan nan nan nan nan nan nan 241 249 258 263 286 294 298 302 298 305 312 320 324 323 327 330 344 345 342 346 332 352 338 352 343 306 310 323 300 243 230 229 226 213 208 212 214 211 211 213 214 215 214 211 205 187 184 198 212 220 236 237 250 221 210 199 200 187 186 186 181 186 192
nan nan nan nan nan nan nan nan nan nan nan nan nan nan nan nan nan nan nan nan nan nan nan nan nan nan nan 269 280 281 279 278 286 297 310 320 328 331 343 351 349 346 338 325 320 316 321 318 304 296 301 306 273 237 233 232 222 214 215 218 214 209 211 212 217 219 220 223 215 202 201 219 245 250 252 256 239 230 221 216 207 200 193 197 196 201
nan nan nan nan nan nan nan nan nan nan nan nan nan nan nan nan nan nan nan nan nan nan nan nan nan nan 253 266 280 290 286 279 279 290 306 321 329 338 340 341 343 333 331 331 314 299 302 312 299 278 274 277 280 271 254 241 228 217 215 220 220 215 211 213 217 218 221 225 230 222 214 212 231 252 258 259 254 250 238 229 229 221 203 206 203 209
nan nan nan nan nan nan nan nan nan nan nan nan nan nan nan nan nan nan nan nan nan nan nan nan nan 265 269 282 283 293 298 302 296 288 300 312 319 325 322 322 326 323 319 321 317 299 282 278 285 286 274 266 262 267 265 254 239 225 223 224 220 218 219 220 223 220 222 224 227 232 228 226 228 238 246 252 247 243 243 238 239 241 230 219 212 213
nan nan nan nan nan nan nan nan nan nan nan nan nan nan nan nan nan nan nan nan nan nan nan nan nan 277 289 288 288 286 284 282 284 296 301 305 309 310 313 308 311 304 307 299 288 287 283 277 274 274 274 268 259 255 252 243 240 235 234 233 232 232 230 226 228 229 225 223 226 234 237 233 233 236 242 245 242 238 241 240 240 240 nan 228 224 216
nan nan nan nan nan nan nan nan nan nan nan nan nan nan nan nan nan nan nan nan nan nan nan nan 271 276 278 293 303 304 290 291 300 310 318 308 292 291 295 304 305 306 305 302 305 294 281 276 272 271 268 266 262 256 254 250 237 228 224 220 235 244 246 241 237 233 231 228 227 231 238 240 240 237 238 242 248 247 243 244 239 239 234 226 219 221
nan nan nan nan nan nan nan nan nan nan nan nan nan nan nan nan nan nan nan nan nan nan nan nan nan nan nan 299 312 314 291 283 284 282 274 282 299 304 300 306 308 305 301 302 306 307 298 288 276 270 263 255 258 255 238 228 227 213 216 259 257 257 252 250 242 237 232 234 235 233 230 234 237 243 243 245 244 245 252 251 246 241 242 238 230 220
nan nan 271 nan nan nan nan nan nan nan nan nan nan nan nan nan nan nan nan nan nan nan 291 293 292 292 292 308 316 299 292 266 264 276 293 301 304 307 309 308 303 303 304 301 303 307 305 296 276 264 258 249 248 251 258 272 276 258 232 232 242 248 247 244 240 234 234 234 236 238 236 233 233 238 242 242 243 241 239 251 254 247 243 244 243 240
nan nan nan nan nan nan nan nan nan nan nan nan nan nan nan nan nan nan nan nan nan nan nan nan nan 299 293 301 301 295 293 299 300 294 293 301 308 305 310 309 305 309 304 305 306 296 293 294 278 266 259 251 246 248 263 265 249 237 232 224 222 234 250 249 236 232 231 236 239 238 239 237 233 234 236 239 240 239 237 238 243 248 248 247 243 237
nan nan nan nan nan nan nan nan nan nan nan nan nan nan nan nan nan nan nan 257 nan nan nan nan nan nan 314 310 310 315 312 305 298 301 300 301 303 301 298 297 295 296 297 298 297 294 292 289 280 270 255 250 247 246 250 253 244 236 231 232 229 229 234 238 236 228 227 231 235 229 227 229 232 233 231 231 234 236 234 233 234 240 243 248 246 240
nan nan nan nan nan nan nan nan nan nan nan nan nan nan nan nan nan nan nan nan nan nan nan nan nan nan 301 318 325 320 310 309 306 308 300 305 298 284 279 287 287 288 287 288 290 285 280 271 264 257 256 252 249 247 244 247 247 241 236 237 233 233 228 235 236 231 223 223 222 218 216 218 222 224 225 227 229 231 232 230 230 234 239 237 238 243
nan nan nan nan nan nan nan nan nan nan nan nan nan nan nan nan nan nan nan nan nan nan nan nan nan nan 329 328 326 322 313 307 303 303 293 295 291 293 296 293 292 290 290 285 279 278 277 271 262 257 255 257 256 252 248 240 238 237 236 238 240 236 233 231 232 231 228 225 224 223 219 218 219 220 220 223 226 230 229 228 224 227 234 238 237 236
nan nan nan nan nan nan nan nan nan nan nan nan nan nan nan nan nan nan nan nan nan nan nan nan nan nan 328 317 311 317 317 311 296 293 301 302 298 298 293 295 297 295 291 291 286 282 277 272 267 260 257 252 253 250 246 241 234 236 231 233 236 237 240 242 244 230 217 218 225 229 230 228 224 221 222 226 229 227 226 226 226 225 230 233 230 227
nan nan nan nan nan nan nan nan nan nan nan nan nan nan nan nan nan nan nan nan nan nan nan nan nan 321 316 315 311 299 292 284 282 286 291 301 298 302 304 302 303 300 293 293 288 286 282 278 271 264 253 248 247 244 240 237 236 232 227 226 226 230 232 237 241 245 247 241 231 228 228 230 231 231 230 230 229 229 227 227 226 224 226 230 232 230
nan nan nan nan nan nan nan nan nan nan nan nan nan nan nan nan nan nan nan nan nan nan nan nan nan 308 302 297 297 298 284 277 288 298 289 288 292 292 289 290 283 285 288 283 277 275 274 271 264 255 255 251 246 241 238 236 238 237 235 232 229 228 226 225 227 230 232 237 243 242 239 237 234 231 231 233 231 230 229 228 229 228 226 224 226 232
nan nan nan nan nan nan nan nan nan nan nan nan nan nan nan nan nan nan nan nan nan 284 288 nan 302 305 309 310 309 299 291 297 315 314 306 291 289 286 282 279 280 277 280 285 285 281 275 267 264 260 254 252 248 244 243 239 238 237 236 234 233 232 228 224 221 224 227 228 232 235 236 236 235 234 233 230 228 231 233 233 234 236 237 234 232 230
nan nan nan nan nan nan nan nan nan nan nan nan nan nan nan nan nan nan nan nan nan 282 296 295 301 304 303 302 299 291 298 nan nan 316 304 301 295 292 289 287 285 283 279 278 276 278 277 272 264 255 252 252 253 252 248 245 244 239 237 235 235 236 234 231 228 226 226 229 233 234 233 230 231 232 233 231 230 233 235 236 237 239 244 245 242 246
nan nan nan nan nan nan nan nan nan nan nan 264 nan nan nan nan nan nan nan nan nan 296 300 nan 302 305 304 303 298 293 nan 301 307 304 302 297 286 287 287 287 290 289 285 278 275 272 270 268 268 266 261 258 258 259 258 254 250 246 242 242 241 239 239 238 237 234 230 229 229 230 231 232 232 230 231 233 235 236 235 237 241 243 244 239 233 229
nan nan nan nan nan nan nan nan nan nan nan nan nan nan nan nan nan nan nan nan 294 299 300 nan 306 310 nan nan nan 297 300 296 294 295 297 293 296 293 290 289 286 279 274 274 274 273 270 268 268 267 265 263 265 264 264 264 261 257 252 246 243 242 241 239 238 236 234 232 231 230 229 226 224 227 228 230 235 237 236 236 239 241 243 243 242 238
nan nan nan nan nan nan nan nan nan nan nan nan nan nan nan nan 270 nan 269 270 287 295 296 298 nan nan nan nan 295 298 296 298 298 297 295 296 296 295 292 288 285 285 282 278 274 276 278 274 272 271 270 267 268 269 268 266 263 260 256 253 247 247 248 243 239 237 236 235 235 234 nan nan 223 220 223 228 232 235 235 238 241 240 240 242 244 241
nan nan nan nan nan nan nan nan nan nan nan nan nan nan nan nan 275 274 nan 274 271 279 287 281 282 294 295 294 299 299 302 299 290 294 295 296 296 293 288 286 285 282 281 280 282 282 281 281 280 278 272 270 268 267 266 267 267 263 261 257 247 249 250 248 244 240 238 237 235 nan nan nan nan 226 223 221 228 233 234 238 242 243 243 245 249 251
nan nan nan 230 nan nan nan nan nan nan nan nan nan nan 267 265 266 271 268 nan nan 261 268 276 284 291 294 295 298 299 295 298 300 301 300 302 299 295 293 294 293 291 287 285 283 282 282 287 286 282 278 271 268 266 266 263 262 264 262 255 247 247 250 249 246 243 240 239 nan nan nan nan nan nan nan 227 223 224 232 237 239 240 244 248 254 259
nan nan 224 228 nan nan nan nan nan 235 246 250 253 263 271 263 256 257 262 261 264 268 275 282 289 291 292 297 294 296 296 297 296 293 292 293 291 289 289 290 289 287 286 284 283 282 282 282 281 280 277 271 267 264 263 267 268 266 265 259 253 252 250 250 248 244 242 239 237 235 nan nan nan nan nan nan 230 227 225 229 235 236 240 245 252 261
nan nan nan nan 225 nan nan 228 236 241 242 251 254 249 247 254 nan nan 266 271 nan 272 274 280 290 294 296 296 299 301 300 299 295 293 291 287 287 289 290 291 291 290 290 289 290 287 285 282 281 279 274 269 263 264 264 262 261 263 261 257 253 253 253 252 250 247 244 nan nan nan nan nan nan nan nan nan nan 229 228 227 230 237 238 239 250 260
nan nan nan nan nan nan nan 232 232 232 239 248 256 261 254 254 262 269 273 275 275 nan nan 284 283 283 286 290 297 299 300 297 297 298 291 288 288 290 290 290 289 284 284 286 289 291 289 286 284 279 274 269 263 260 260 261 260 257 256 256 258 255 253 252 250 249 248 nan nan nan nan nan nan 232 234 232 nan nan 228 231 231 233 241 248 254 259
224 nan nan nan nan 228 228 231 229 233 239 245 249 254 263 270 270 268 270 271 272 272 272 275 281 286 285 292 292 295 296 297 299 298 293 289 289 290 291 293 291 290 289 289 292 294 296 290 287 281 275 270 266 263 259 259 258 254 251 252 258 256 253 249 248 248 246 245 nan nan 242 239 nan 236 nan 236 239 238 nan nan 230 231 233 241 248 254
nan nan 226 228 232 232 234 232 234 239 241 nan 252 262 266 266 269 269 265 267 271 274 276 279 279 282 288 292 293 296 302 303 300 296 295 294 294 293 294 296 294 293 295 299 299 298 294 291 284 278 275 270 266 261 259 255 254 252 251 251 251 253 250 248 247 246 245 245 nan nan 249 245 nan 239 238 239 240 241 241 238 nan nan 234 233 235 257
nan nan 229 nan 235 234 233 236 241 243 242 246 257 258 260 260 261 264 269 274 276 280 283 283 279 273 278 285 291 295 301 305 302 295 291 291 294 296 300 300 298 301 307 306 302 301 298 294 285 280 274 268 265 261 256 254 252 250 246 245 246 250 250 250 248 247 247 247 246 248 249 nan nan nan 240 238 nan 237 237 235 nan nan 231 236 240 247